| time (UTC) | temp F | wind direction | speed MPH | gust MPH | rain 1hr in | rain 24hr in | rain mn in | humidity % | barometer mb |
| 20260510170046 | 76 | 112 | 1.0 | 5.0 | 0.00 | 0.00 | 0.00 | 23 | 1017.6 |
| 20260510164545 | 76 | 137 | 1.0 | 3.0 | 0.00 | 0.00 | 0.00 | 26 | 1017.6 |
| 20260510163040 | 75 | 0 | 0.0 | 3.0 | 0.00 | 0.00 | 0.00 | 25 | 1017.6 |
| 20260510161534 | 74 | 0 | 0.0 | 1.0 | 0.00 | 0.00 | 0.00 | 29 | 1017.6 |
| 20260510160039 | 73 | 0 | 0.0 | 0.0 | 0.00 | 0.00 | 0.00 | 30 | 1017.7 |
| 20260510154537 | 72 | 0 | 0.0 | 1.0 | 0.00 | 0.00 | 0.00 | 34 | 1017.6 |
| 20260510153048 | 72 | 0 | 0.0 | 0.0 | 0.00 | 0.00 | 0.00 | 36 | 1017.6 |
| 20260510151539 | 70 | 0 | 0.0 | 0.0 | 0.00 | 0.00 | 0.00 | 36 | 1017.5 |
| 20260510150037 | 66 | 0 | 0.0 | 0.0 | 0.00 | 0.00 | 0.00 | 42 | 1017.5 |
| 20260510144538 | 63 | 0 | 0.0 | 0.0 | 0.00 | 0.00 | 0.00 | 49 | 1017.5 |
| 20260510143040 | 55 | 0 | 0.0 | 0.0 | 0.00 | 0.00 | 0.00 | 58 | 1017.5 |
| 20260510141545 | 47 | 0 | 0.0 | 0.0 | 0.00 | 0.00 | 0.00 | 65 | 1017.4 |
| 20260510140037 | 44 | 0 | 0.0 | 0.0 | 0.00 | 0.00 | 0.00 | 68 | 1017.5 |
| 20260510134537 | 42 | 0 | 0.0 | 0.0 | 0.00 | 0.00 | 0.00 | 70 | 1017.3 |
| 20260510133036 | 40 | 0 | 0.0 | 0.0 | 0.00 | 0.00 | 0.00 | 68 | 1017.2 |
| 20260510131538 | 40 | 0 | 0.0 | 0.0 | 0.00 | 0.00 | 0.00 | 65 | 1017.1 |
| 20260510130312 | 40 | 0 | 0.0 | 0.0 | 0.00 | 0.00 | 0.00 | 66 | 1016.9 |
| 20260510124550 | 41 | 0 | 0.0 | 0.0 | 0.00 | 0.00 | 0.00 | 65 | 1016.9 |
| 20260510123038 | 41 | 0 | 0.0 | 0.0 | 0.00 | 0.00 | 0.00 | 65 | 1016.7 |
| 20260510121541 | 42 | 0 | 0.0 | 0.0 | 0.00 | 0.00 | 0.00 | 66 | 1016.9 |
| 20260510120037 | 42 | 0 | 0.0 | 0.0 | 0.00 | 0.00 | 0.00 | 65 | 1016.8 |
| 20260510114538 | 42 | 0 | 0.0 | 0.0 | 0.00 | 0.00 | 0.00 | 63 | 1016.8 |
| 20260510113040 | 43 | 0 | 0.0 | 0.0 | 0.00 | 0.00 | 0.00 | 60 | 1016.9 |
| 20260510111536 | 44 | 0 | 0.0 | 0.0 | 0.00 | 0.00 | 0.00 | 56 | 1016.9 |
| 20260510110042 | 44 | 0 | 0.0 | 0.0 | 0.00 | 0.00 | 0.00 | 59 | 1016.9 |
| 20260510104538 | 45 | 0 | 0.0 | 0.0 | 0.00 | 0.00 | 0.00 | 56 | 1016.7 |
| 20260510103035 | 45 | 0 | 0.0 | 0.0 | 0.00 | 0.00 | 0.00 | 54 | 1016.8 |
| 20260510101540 | 45 | 0 | 0.0 | 0.0 | 0.00 | 0.00 | 0.00 | 55 | 1016.9 |
| 20260510100037 | 46 | 0 | 0.0 | 0.0 | 0.00 | 0.00 | 0.00 | 54 | 1016.7 |
| 20260510094537 | 46 | 0 | 0.0 | 0.0 | 0.00 | 0.00 | 0.00 | 53 | 1016.6 |
| 20260510093037 | 48 | 0 | 0.0 | 0.0 | 0.00 | 0.00 | 0.00 | 49 | 1016.5 |
| 20260510091539 | 49 | 0 | 0.0 | 0.0 | 0.00 | 0.00 | 0.00 | 42 | 1016.4 |
| 20260510090035 | 50 | 0 | 0.0 | 0.0 | 0.00 | 0.00 | 0.00 | 37 | 1016.3 |
| 20260510084537 | 50 | 0 | 0.0 | 0.0 | 0.00 | 0.00 | 0.00 | 42 | 1016.3 |
| 20260510083052 | 50 | 0 | 0.0 | 0.0 | 0.00 | 0.00 | 0.00 | 46 | 1016.3 |
| 20260510081538 | 50 | 0 | 0.0 | 0.0 | 0.00 | 0.00 | 0.00 | 42 | 1016.4 |
| 20260510080036 | 51 | 0 | 0.0 | 0.0 | 0.00 | 0.00 | 0.00 | 43 | 1016.5 |
| 20260510074538 | 51 | 0 | 0.0 | 1.0 | 0.00 | 0.00 | 0.00 | 41 | 1016.6 |
| 20260510073040 | 53 | 0 | 0.0 | 0.0 | 0.00 | 0.00 | 0.00 | 44 | 1016.5 |
| 20260510071540 | 54 | 0 | 0.0 | 0.0 | 0.00 | 0.00 | 0.00 | 35 | 1016.4 |
| 20260510070042 | 53 | 0 | 0.0 | 1.0 | 0.00 | 0.00 | 0.00 | 43 | 1016.3 |
| 20260510064540 | 53 | 0 | 0.0 | 0.0 | 0.00 | 0.00 | 0.00 | 45 | 1016.4 |
| 20260510063038 | 55 | 0 | 0.0 | 1.0 | 0.00 | 0.00 | 0.00 | 43 | 1016.3 |
| 20260510061537 | 54 | 0 | 0.0 | 2.0 | 0.00 | 0.00 | 0.00 | 44 | 1016.2 |
| 20260510060037 | 53 | 0 | 0.0 | 1.0 | 0.00 | 0.00 | 0.00 | 34 | 1016.1 |
| 20260510054534 | 53 | 0 | 0.0 | 0.0 | 0.00 | 0.00 | 0.00 | 33 | 1016.0 |
| 20260510053038 | 54 | 0 | 0.0 | 0.0 | 0.00 | 0.00 | 0.00 | 30 | 1016.1 |
| 20260510051537 | 57 | 0 | 0.0 | 0.0 | 0.00 | 0.00 | 0.00 | 30 | 1016.2 |
| 20260510050041 | 58 | 0 | 0.0 | 0.0 | 0.00 | 0.00 | 0.00 | 32 | 1016.0 |
| 20260510044539 | 58 | 0 | 0.0 | 0.0 | 0.00 | 0.00 | 0.00 | 31 | 1016.1 |
| 20260510043034 | 58 | 0 | 0.0 | 0.0 | 0.00 | 0.00 | 0.00 | 33 | 1015.9 |
| 20260510041536 | 57 | 0 | 0.0 | 0.0 | 0.00 | 0.00 | 0.00 | 32 | 1015.8 |
| 20260510040039 | 58 | 0 | 0.0 | 0.0 | 0.00 | 0.00 | 0.00 | 34 | 1015.7 |
| 20260510034540 | 60 | 0 | 0.0 | 0.0 | 0.00 | 0.00 | 0.00 | 28 | 1015.5 |
| 20260510033045 | 61 | 0 | 0.0 | 0.0 | 0.00 | 0.00 | 0.00 | 29 | 1015.4 |
| 20260510031539 | 64 | 0 | 0.0 | 0.0 | 0.00 | 0.00 | 0.00 | 26 | 1015.4 |
| 20260510030038 | 68 | 0 | 0.0 | 0.0 | 0.00 | 0.00 | 0.00 | 24 | 1015.3 |
| 20260510024537 | 72 | 0 | 0.0 | 0.0 | 0.00 | 0.00 | 0.00 | 21 | 1015.1 |
| 20260510023037 | 77 | 0 | 0.0 | 0.0 | 0.00 | 0.00 | 0.00 | 17 | 1015.1 |
| 20260510021900 | 81 | 0 | 0.0 | 2.0 | 0.00 | 0.00 | 0.00 | 15 | 1015.0 |
| 20260510020037 | 83 | 0 | 0.0 | 1.0 | 0.00 | 0.00 | 0.00 | 15 | 1015.1 |
| 20260510014533 | 84 | 0 | 0.0 | 0.0 | 0.00 | 0.00 | 0.00 | 18 | 1015.1 |
| 20260510013035 | 84 | 0 | 0.0 | 2.0 | 0.00 | 0.00 | 0.00 | 15 | 1015.1 |
| 20260510011538 | 84 | 0 | 0.0 | 2.0 | 0.00 | 0.00 | 0.00 | 19 | 1015.3 |
| 20260510010039 | 84 | 86 | 0.0 | 4.0 | 0.00 | 0.00 | 0.00 | 14 | 1015.3 |
| 20260510004537 | 84 | 108 | 0.0 | 4.0 | 0.00 | 0.00 | 0.00 | 17 | 1015.4 |
| 20260510003045 | 84 | 91 | 1.0 | 4.0 | 0.00 | 0.00 | 0.00 | 13 | 1015.3 |
| 20260510001538 | 85 | 332 | 0.0 | 5.0 | 0.00 | 0.00 | 0.00 | 13 | 1015.3 |
| 20260510000039 | 84 | 0 | 0.0 | 2.0 | 0.00 | 0.00 | 0.00 | 14 | 1015.3 |
| 20260509234543 | 83 | 82 | 0.0 | 3.0 | 0.00 | 0.00 | 0.00 | 17 | 1015.4 |
| 20260509233038 | 84 | 157 | 1.0 | 5.0 | 0.00 | 0.00 | 0.00 | 15 | 1015.4 |
| 20260509231537 | 84 | 262 | 0.0 | 2.0 | 0.00 | 0.00 | 0.00 | 16 | 1015.6 |
| 20260509230041 | 83 | 207 | 0.0 | 3.0 | 0.00 | 0.00 | 0.00 | 16 | 1015.8 |
| 20260509224546 | 83 | 85 | 1.0 | 4.0 | 0.00 | 0.00 | 0.00 | 21 | 1016.1 |
| 20260509223043 | 82 | 0 | 0.0 | 5.0 | 0.00 | 0.00 | 0.00 | 22 | 1016.3 |
| 20260509221535 | 82 | 326 | 0.0 | 6.0 | 0.00 | 0.00 | 0.00 | 17 | 1016.6 |
| 20260509201538 | 79 | 280 | 1.0 | 6.0 | 0.00 | 0.00 | 0.00 | 17 | 1017.8 |
| 20260509200037 | 78 | 0 | 0.0 | 7.0 | 0.00 | 0.00 | 0.00 | 19 | 1017.8 |
| 20260509194538 | 80 | 26 | 0.0 | 4.0 | 0.00 | 0.00 | 0.00 | 20 | 1018.1 |
| 20260509193036 | 79 | 0 | 0.0 | 3.0 | 0.00 | 0.00 | 0.00 | 22 | 1018.3 |
| 20260509191539 | 78 | 131 | 0.0 | 4.0 | 0.00 | 0.00 | 0.00 | 27 | 1018.5 |
| 20260509190040 | 77 | 78 | 1.0 | 5.0 | 0.00 | 0.00 | 0.00 | 26 | 1018.7 |
| 20260509184545 | 77 | 0 | 2.0 | 5.0 | 0.00 | 0.00 | 0.00 | 20 | 1018.8 |
| 20260509183039 | 75 | 0 | 2.0 | 6.0 | 0.00 | 0.00 | 0.00 | 19 | 1018.9 |
| 20260509181629 | 75 | 0 | 0.0 | 4.0 | 0.00 | 0.00 | 0.00 | 20 | 1019.0 |
| 20260509173043 | 73 | 25 | 1.0 | 6.0 | 0.00 | 0.00 | 0.00 | 22 | 1019.2 |
| 20260509171549 | 71 | 0 | 0.0 | 6.0 | 0.00 | 0.00 | 0.00 | 22 | 1019.2 |